Regional Weather Roundup
Issued by NWS

Home | Current Version | Previous Version | Text Only | Print | Product List | Glossary On
Versions: 1 2 3 4 5 6 7 8 9 10 11 12 13 14 15 16 17 18 19 20 21 22 23 24 25 26 27 28 29 30 31 32 33 34 35 36 37 38 39 40 41 42 43 44 45 46 47 48 49 50
000
ASUS46 KLOX 210512
RWRCA

SOUTHERN CALIFORNIA WEATHER ROUNDUP
NATIONAL WEATHER SERVICE OXNARD CALIFORNIA
1000 PM PDT SUN APR 20 2014

NOTE: "FAIR" INDICATES FEW OR NO CLOUDS BELOW 12,000 FEET WITH NO
SIGNIFICANT WEATHER AND/OR OBSTRUCTIONS TO VISIBILITY.

  -  STATIONS PRECEEDED BY AN ASTERISK (*) ARE NOT NWS OR FAA
     STATIONS AND ARE NOT SUBJECT TO NWS AND FAA QUALITY CONTROL.

CAZ041-042-087-210600-
LA AND ORANGE COUNTY COASTAL AREAS


CITY           SKY/WX    TMP DP  RH WIND       PRES   REMARKS
L.A. DOWNTOWN  CLEAR     62  56  80 CALM      30.04R
L.A. AIRPORT   PTCLDY    61  56  83 SW3       30.05R
LONG BEACH     CLEAR     63  54  72 CALM      30.04R

CITY           SKY/WX    TMP DP  RH WIND       PRES   REMARKS
AVALON           N/A     55 N/A N/A MISG        N/A
FULLERTON      CLEAR     65  57  75 S5        30.04R
*GETTY CENTER    N/A     61  54  77 NE2         N/A
HAWTHORNE      CLEAR     61  55  81 W5        30.05R
*LEO CARRILLO    N/A     58  54  85 N6          N/A
*REDONDO BEACH   N/A     60  56  88 CALM      30.03S
SANTA ANA      PTCLDY    63  57  81 SW6       30.06R
STA MONICA APT CLEAR     63  56  78 S3        30.04S
*UCLA            N/A     61  55  82 CALM      30.02R

$$

CAZ547-548-048-210600-
LA COUNTY VALLEYS AND INLAND EMPIRE


CITY           SKY/WX    TMP DP  RH WIND       PRES   REMARKS
BURBANK        CLEAR     65  56  72 SE5       30.03R
VAN NUYS       CLEAR     70  49  47 CALM      30.03R

CITY           SKY/WX    TMP DP  RH WIND       PRES   REMARKS
CORONA AIRPORT CLEAR     64  53  67 CALM      30.05R
*CHATSWORTH      N/A     66  52  59 CALM      30.01R
CHINO          CLEAR     63  54  72 CALM      30.06R
MARCH AFB      CLEAR     64  51  63 N2        30.07R
ONTARIO        CLEAR     68  53  58 SW3       30.05R
*PASADENA        N/A     64  57  77 CALM        N/A
RIVERSIDE      CLEAR     68  54  60 NE3       30.05R
SAN BERNARDINO NOT AVBL
*SAN GABRIEL     N/A     64  54  70 CALM      30.02R
*SAN RAFAEL HI   N/A     64  49  57 SW3         N/A
*SAUGUS          N/A     65  52  63 NE2         N/A
*WHITEMAN AP   NOT AVBL
*WHITTIER HILL   N/A     59  54  83 S3          N/A
*WOODLAND HILL   N/A     66  48  52 SW2         N/A

$$

CAZ054-055-210600-
LA AND SAN BERNARDINO COUNTY MOUNTAINS


CITY           SKY/WX    TMP DP  RH WIND       PRES   REMARKS
*BIG BEAR AIRP CLEAR     43  32  65 CALM      30.30R
*CHILAO          N/A     60  23  24 S6          N/A
MT WILSON NWS    N/A     55  12  18 E8          N/A
SANDBERG       CLEAR     58  33  39 N13       30.19R
*WARM SPRINGS    N/A     61  33  34 NW6         N/A

$$

CAZ028-029-059-060-099-210600-
ANTELOPE VALLEY AND SURROUNDING AREAS


CITY           SKY/WX    TMP DP  RH WIND       PRES   REMARKS
LANCASTER      CLEAR     66  40  38 W12       30.08R
PALMDALE       CLEAR     68  43  40 W15       30.08R
*POPPY PARK      N/A     65  33  30 W15         N/A

CITY           SKY/WX    TMP DP  RH WIND       PRES   REMARKS
29 PALMS       CLEAR     77  42  28 SW13      30.08R
BARSTOW/DAGGET CLEAR     76  41  28 W14       30.03R
BISHOP         MOCLDY    66  17  15 NW6       30.10R
CHINA LAKE       N/A     73  34  23 S14       29.99R
EDWARDS AFB    CLEAR     66  35  31 SW13      30.05R
MOJAVE         FAIR      64  37  36 W28G35    30.05S
NEEDLES        CLEAR     85  33  15 SW8       29.94R
VICTORVILLE    CLEAR     68  43  40 W8        30.10R

$$

CAZ039-040-210600-
VENTURA AND SANTA BARBARA COUNTY COAST


CITY           SKY/WX    TMP DP  RH WIND       PRES   REMARKS
CAMARILLO      CLEAR     59  53  80 NW3       30.03S
NWS OXNARD       N/A     59  54  83 CALM      30.03S
OXNARD AIRPORT CLEAR     57  54  89 CALM      30.04R
*POINT MUGU    CLEAR     59  55  87 NW6       30.03R
SBA APT/GOLETA CLEAR     56  52  86 CALM      30.03R
*VENTURA         N/A     59  52  77 CALM      30.08S

$$

CAZ044-045-210600-
VENTURA COUNTY VALLEYS


CITY           SKY/WX    TMP DP  RH WIND       PRES   REMARKS
*SIMI VALLEY     N/A     62  53  73 CALM      30.00S
*OJAI            N/A     57  51  81 CALM      29.98S
*FILLMORE        N/A     60  51  71 CALM      29.95S

$$

CAZ053-210600-
VENTURA COUNTY MOUNTAINS


CITY           SKY/WX    TMP DP  RH WIND       PRES   REMARKS
*LOCKWOOD VLY    N/A     45  23  42 CALM        N/A
*ROSE VALLEY     N/A     48  41  76 MISG        N/A

$$

CAZ034-035-036-210600-
CENTRAL COAST AND SANTA YNEZ VALLEY


CITY           SKY/WX    TMP DP  RH WIND       PRES   REMARKS
SAN LUIS OBISP CLEAR     55  49  80 NW3       30.05R
SANTA MARIA    CLEAR     56  48  74 CALM      30.06R

CITY           SKY/WX    TMP DP  RH WIND       PRES   REMARKS
*CAL POLY SLO    N/A     55  50  82 S3G20       N/A
*LOMPOC        CLEAR     54  46  76 W3        30.08R
*PISMO BEACH     N/A     58  49  74 E3        30.05R
*SANTA YNEZ    FAIR      55  45  67 SW3       30.06R

$$

CAZ037-038-051-210600-
SAN LUIS OBISPO COUNTY INTERIOR AND CUYAMA VALLEY


CITY           SKY/WX    TMP DP  RH WIND       PRES   REMARKS
*CUYAMA          N/A     61  28  28 S7        29.97R
PASO ROBLES    CLEAR     67  44  43 W6        30.06R

$$

CAZ032-033-061-210600-
SOUTHERN DESERTS


CITY           SKY/WX    TMP DP  RH WIND       PRES   REMARKS
BLYTHE         CLEAR     83  39  21 SW7       29.93R
IMPERIAL       CLEAR     81  41  24 S6        29.91R
PALM SPRINGS   CLEAR     83  48  29 N3        29.97R
THERMAL        CLEAR     73  53  49 N3        29.91R

$$

ELSEWHERE ACROSS THE WESTERN UNITED STATES AND MEXICO


CITY           SKY/WX    TMP DP  RH WIND       PRES   REMARKS
DENVER, CO     PTCLDY    56  37  49 W10       30.12R
GRAND CANYON,  CLEAR     41  30  65 CALM      30.25S
HONOLULU, HI   PTCLDY    75  64  69 NE22      30.11R
KAHULUI, MAUI  MOCLDY    73  66  78 NE16      30.11S
LAKE TAHOE, CA CLEAR     45  31  58 SW3       30.25S
LAS VEGAS, NV  CLEAR     82  29  14 SW9       29.94R
MAMMOTH LAKES, FAIR      50  21  32 W9        30.27R
MEXICO CITY, M PTCLDY    66  34  30 N9        30.36R
PHOENIX, AZ    CLEAR     83  36  18 CALM      29.96R
PORTLAND, OR   CLOUDY    55  45  68 E3        30.15S
RENO, NV       PTCLDY    61  22  22 CALM      30.18R
SALT LAKE CITY MOCLDY    57  25  29 SE5       30.18R
SAN DIEGO, CA  MOCLDY    62  56  80 NW3       30.08S
SAN FRANCISCO, CLEAR     57  44  62 NW14      30.09R
SAN JOSE, CA   CLEAR     61  43  51 W8        30.10R
SEATTLE, WA    MOCLDY    51  40  65 W5        30.17S
TIJUANA, MEX   PTCLDY    59  54  82 W12       30.09R

$$

STATION/POSITION TIME  TEMP    WIND        PRES    VSBY  WAVE
                       AIR SEA DIR/SP/G                  HT/PER
                 (UTC) (F)     (DEG/KT/KT) (MB)    (MI)  (FT/S)
POINT ARGUELLO B NOT AVBL
WEST SANTA BARBA 0500   56 55  310/ 14/ 16 1016.7R        13/15
POINT CONCEPTION NOT AVBL
EAST SANTA BARBA NOT AVBL
SANTA MONICA BAY 0500   60 61  280/  6/  8 1016.9R         4/16



USA.gov is the U.S. government's official web portal to all federal, state and local government web resources and services.